Flag for Ireland Weather past 2 weeks in Dundalk, Ireland

Now
39 °F

Chilly.


Feels Like: 31 °F
Forecast: 35 / 48 °F
Wind: 12 mph from Southwest

Location: Glenanne

Current Time: Feb 27, 2015 at 12:09:49 PM

Latest Report: Feb 27, 2015 at 11:00 AM


Visibility: 8 mi

Pressure: 29.98 "Hg

Humidity: 93%

Dew point: 37 °F

Location of DundalkLocation

Historic Weather in Dundalk — Graph

°F

Dundalk temperature yesterday

Maximum temperature yesterday: 51 °F (at 12:00 AM)
Minimum temperature yesterday: 33 °F (at 11:00 PM)
Average temperature yesterday: 39 °F

Past Weeks' High & Low Weather Summary

 TemperatureHumidityPressure
High53 °F (Feb 18, 3:00 PM)100% (Feb 12, 9:00 PM)30.52 "Hg (Feb 12, 9:00 PM)
Low30 °F (Feb 22, 4:00 AM)61% (Feb 26, 3:00 PM)28.76 "Hg (Feb 23, 3:00 PM)
Average40 °F94%29.71 "Hg
* Reported Feb 12 10:00 AM — Feb 27 10:00 AM, Dundalk, Weather by CustomWeather, © 2015

Note: Actual official high and low records may vary slightly from our data, if they occured in-between our weather recording intervals... More about our weather records

Advertising

Dundalk weather history for previous 24 hours

 ConditionsComfort  
Time TempWeatherWind HumidityBarometerVisibility
10:00 AM
Fri, Feb 27
36 °FChilly.13 mph91%29.99 "Hg15 mi
9:00 AM33 °FChilly.13 mph99%30.00 "Hg11 mi
8:00 AM32 °FChilly.10 mph100%29.99 "Hg9 mi
7:00 AM32 °FChilly.12 mph99%29.99 "Hg10 mi
6:00 AM33 °FChilly.9 mph97%29.99 "Hg12 mi
5:00 AM33 °FChilly.10 mph98%29.98 "Hg16 mi
4:00 AM33 °FChilly.9 mph98%29.98 "Hg16 mi
1:00 AM33 °FChilly.10 mph98%29.97 "Hg14 mi
12:00 AM34 °FSnow flurries. Overcast.12 mph96%29.95 "Hg13 mi
11:00 PM
Thu, Feb 26
33 °FChilly.12 mph97%29.93 "Hg22 mi
10:00 PM34 °FChilly.13 mph96%29.92 "Hg12 mi
9:00 PM35 °FChilly.9 mph91%29.91 "Hg18 mi
8:00 PM35 °FChilly.8 mph89%29.90 "Hg17 mi
7:00 PM36 °FChilly.9 mph87%29.89 "Hg13 mi
6:00 PM36 °FChilly.7 mph90%29.88 "Hg16 mi
5:00 PM36 °FChilly.7 mph97%29.85 "Hg12 mi
4:00 PM35 °FRain showers. Cloudy.12 mph99%29.85 "Hg19 mi
3:00 PM42 °FQuite cool.15 mph61%29.83 "Hg15 mi
2:00 PM42 °FQuite cool.16 mph66%29.82 "Hg14 mi
1:00 PM41 °FQuite cool.16 mph71%29.81 "Hg13 mi
12:00 PM40 °FQuite cool.17 mph76%29.81 "Hg16 mi
Weather by CustomWeather, © 2015

See weather overviewHow to use our weather pages